K4BS Weather Reports


time (UTC)temp
C
wind
direction
speed
KPH
gust
KPH
rain 1hr
cm
rain 24hr
cm
rain mn
cm
humidity
%
barometer
mb
20260506024504 16 119 0.0 0.0 0.00 0.00 0.00 75 1014.7
20260506024004 16 119 0.0 0.0 0.00 0.00 0.00 74 1014.6
20260506023005 16 119 0.0 0.0 0.00 0.00 0.00 75 1014.8
20260506022505 16 119 0.0 0.0 0.00 0.00 0.00 74 1014.9
20260506022005 16 119 0.0 0.0 0.00 0.00 0.00 73 1014.8
20260506021505 16 119 0.0 0.0 0.00 0.00 0.00 75 1014.9
20260506021006 16 119 0.0 0.0 0.00 0.00 0.00 74 1014.9
20260506020505 16 119 0.0 0.0 0.00 0.00 0.00 74 1014.8
20260506020005 16 119 0.0 0.0 0.00 0.00 0.00 74 1015.3
20260506015506 16 119 0.0 0.0 0.00 0.00 0.00 73 1015.1
20260506014505 16 119 0.0 0.0 0.00 0.00 0.00 73 1015.2
20260506014005 16 119 0.0 0.0 0.00 0.00 0.00 73 1015.1
20260506013505 16 119 0.0 0.0 0.00 0.00 0.00 72 1015.1
20260506013005 16 119 0.0 0.0 0.00 0.00 0.00 72 1014.9
20260506012505 16 119 0.0 0.0 0.00 0.00 0.00 71 1014.8
20260506012005 16 119 0.0 0.0 0.00 0.00 0.00 71 1014.8
20260506011505 17 119 0.0 0.0 0.00 0.00 0.00 71 1014.7
20260506011005 17 119 0.0 0.0 0.00 0.00 0.00 70 1014.7
20260506010505 17 119 0.0 0.0 0.00 0.00 0.00 70 1014.8
20260506010006 17 119 0.0 0.0 0.00 0.00 0.00 70 1015.0
20260506005505 17 119 0.0 0.0 0.00 0.00 0.00 69 1015.0
20260506004505 18 119 0.0 0.0 0.00 0.00 0.00 68 1014.9
20260506004005 18 119 0.0 0.0 0.00 0.00 0.00 67 1014.9
20260506003504 18 119 0.0 0.0 0.00 0.00 0.00 66 1015.0
20260506002505 19 119 0.0 0.0 0.00 0.00 0.00 65 1014.9
20260506001505 20 119 0.0 0.0 0.00 0.00 0.00 63 1014.7
20260506001005 20 119 0.0 0.0 0.00 0.00 0.00 63 1014.5
20260506000505 20 119 0.0 0.0 0.00 0.00 0.00 62 1014.5
20260505235505 20 119 0.0 0.0 0.00 0.00 0.00 61 1015.0
20260505235005 21 119 0.0 0.0 0.00 0.00 0.00 62 1014.9
20260505234505 21 119 0.0 0.0 0.00 0.00 0.00 59 1014.8
20260505233505 21 119 0.0 0.0 0.00 0.00 0.00 58 1014.7
20260505233005 21 119 0.0 0.0 0.00 0.00 0.00 56 1014.7
20260505232005 21 119 0.0 0.0 0.00 0.00 0.00 53 1014.9
20260505230505 21 119 0.0 0.0 0.00 0.00 0.00 52 1015.1
20260505230005 21 119 0.0 0.0 0.00 0.00 0.00 51 1015.0
20260505225505 22 119 0.0 0.0 0.00 0.00 0.00 51 1015.0
20260505225005 22 119 0.0 0.0 0.00 0.00 0.00 50 1015.0
20260505224505 22 119 0.0 0.0 0.00 0.00 0.00 49 1015.0
20260505224005 22 119 0.0 0.0 0.00 0.00 0.00 48 1015.0
20260505223505 22 119 0.0 0.0 0.00 0.00 0.00 46 1015.1
20260505222505 22 119 0.0 0.0 0.00 0.00 0.00 45 1015.2
20260505222005 22 119 0.0 0.0 0.00 0.00 0.00 45 1015.2
20260505221505 22 119 0.0 0.0 0.00 0.00 0.00 44 1015.3
20260505221005 22 119 0.0 0.0 0.00 0.00 0.00 45 1015.3
20260505220505 22 119 0.0 0.0 0.00 0.00 0.00 45 1015.2
20260505220005 22 119 0.0 0.0 0.00 0.00 0.00 44 1014.9
20260505215504 22 119 0.0 0.0 0.00 0.00 0.00 43 1014.8
20260505215005 22 119 0.0 0.0 0.00 0.00 0.00 42 1014.7
20260505214505 22 119 0.0 1.6 0.00 0.00 0.00 42 1014.9
20260505214005 22 123 0.0 3.2 0.00 0.00 0.00 43 1015.1
20260505213505 22 171 0.0 4.8 0.00 0.00 0.00 42 1014.9
20260505213006 22 117 1.6 4.8 0.00 0.00 0.00 42 1014.9
20260505212504 22 81 0.0 3.2 0.00 0.00 0.00 41 1014.9
20260505212005 22 75 1.6 4.8 0.00 0.00 0.00 41 1015.0
20260505211505 23 71 1.6 4.8 0.00 0.00 0.00 40 1014.9
20260505210505 23 224 0.0 1.6 0.00 0.00 0.00 39 1015.1
20260505210006 23 156 1.6 4.8 0.00 0.00 0.00 38 1015.2
20260505205005 23 111 1.6 4.8 0.00 0.00 0.00 41 1014.9
20260505204505 23 115 1.6 3.2 0.00 0.00 0.00 40 1014.9
20260505204005 23 119 0.0 1.6 0.00 0.00 0.00 42 1014.9
20260505203505 23 119 0.0 0.0 0.00 0.00 0.00 42 1014.9
20260505203005 23 115 0.0 1.6 0.00 0.00 0.00 42 1014.9
20260505202505 23 148 0.0 0.0 0.00 0.00 0.00 41 1014.7
20260505201504 23 151 0.0 1.6 0.00 0.00 0.00 41 1015.1
20260505201005 23 151 0.0 9.7 0.00 0.00 0.00 40 1015.1
20260505200505 23 33 1.6 4.8 0.00 0.00 0.00 40 1015.3
20260505200005 23 58 0.0 4.8 0.00 0.00 0.00 39 1015.2
20260505195505 23 119 0.0 4.8 0.00 0.00 0.00 40 1015.2
20260505195005 23 196 0.0 4.8 0.00 0.00 0.00 40 1015.2
20260505194505 23 108 1.6 4.8 0.00 0.00 0.00 38 1015.3
20260505194005 23 117 0.0 4.8 0.00 0.00 0.00 41 1015.3
20260505193504 23 105 1.6 3.2 0.00 0.00 0.00 42 1015.3
20260505193005 23 107 0.0 3.2 0.00 0.00 0.00 43 1015.5
20260505192504 23 109 0.0 4.8 0.00 0.00 0.00 42 1015.5
20260505192005 24 118 1.6 4.8 0.00 0.00 0.00 43 1015.6
20260505191505 24 122 0.0 3.2 0.00 0.00 0.00 42 1015.7
20260505191005 24 118 1.6 4.8 0.00 0.00 0.00 42 1015.9
20260505190504 24 219 1.6 11.3 0.00 0.00 0.00 40 1016.0
20260505190005 24 116 0.0 3.2 0.00 0.00 0.00 41 1015.9
20260505185505 24 116 0.0 4.8 0.00 0.00 0.00 40 1016.0
20260505185005 24 141 1.6 4.8 0.00 0.00 0.00 40 1015.8
20260505184505 24 232 3.2 4.8 0.00 0.00 0.00 40 1015.8
20260505184004 23 208 1.6 8.0 0.00 0.00 0.00 40 1015.9
20260505183505 23 155 1.6 4.8 0.00 0.00 0.00 41 1016.1
20260505182505 23 179 1.6 4.8 0.00 0.00 0.00 42 1016.1
20260505182005 23 101 1.6 4.8 0.00 0.00 0.00 45 1016.3
20260505181005 23 108 0.0 4.8 0.00 0.00 0.00 44 1016.4
20260505180504 23 79 3.2 4.8 0.00 0.00 0.00 44 1016.5
20260505180005 23 134 1.6 4.8 0.00 0.00 0.00 46 1016.5
20260505175504 23 204 0.0 4.8 0.00 0.00 0.00 47 1016.7
20260505175004 22 97 0.0 4.8 0.00 0.00 0.00 47 1016.7
20260505174506 22 92 1.6 4.8 0.00 0.00 0.00 46 1016.8
20260505174004 22 88 1.6 4.8 0.00 0.00 0.00 47 1016.9
20260505173504 23 264 0.0 4.8 0.00 0.00 0.00 45 1017.0
20260505173005 23 264 3.2 4.8 0.00 0.00 0.00 48 1016.8
20260505172504 23 268 1.6 4.8 0.00 0.00 0.00 47 1017.0
20260505172004 22 149 1.6 4.8 0.00 0.00 0.00 47 1017.1
20260505171505 22 110 0.0 4.8 0.00 0.00 0.00 46 1017.3
20260505171005 22 168 1.6 4.8 0.00 0.00 0.00 46 1017.4
20260505170505 22 232 1.6 4.8 0.00 0.00 0.00 45 1017.3
20260505170005 22 111 1.6 4.8 0.00 0.00 0.00 45 1017.0
20260505165504 22 72 1.6 4.8 0.00 0.00 0.00 44 1017.0
20260505165004 22 119 1.6 4.8 0.00 0.00 0.00 43 1016.8
20260505164505 22 263 0.0 0.0 0.00 0.00 0.00 44 1017.0
20260505164004 22 261 1.6 8.0 0.00 0.00 0.00 46 1017.0
20260505163505 22 299 0.0 4.8 0.00 0.00 0.00 46 1017.2
20260505163005 21 178 3.2 4.8 0.00 0.00 0.00 47 1017.3
20260505162505 21 66 3.2 8.0 0.00 0.00 0.00 46 1017.4
20260505162004 21 80 1.6 3.2 0.00 0.00 0.00 46 1017.4
20260505161505 21 120 3.2 4.8 0.00 0.00 0.00 47 1017.5
20260505161004 21 19 0.0 3.2 0.00 0.00 0.00 47 1017.4
20260505152504 19 87 0.0 3.2 0.00 0.00 0.00 58 1017.9
20260505152005 19 59 1.6 3.2 0.00 0.00 0.00 64 1017.8
20260505151004 18 186 0.0 4.8 0.00 0.00 0.00 63 1018.1
20260505140505 13 249 0.0 0.0 0.00 0.00 0.00 82 1018.3
20260505125004 9 249 0.0 0.0 0.00 0.00 0.00 93 1017.7
20260505123505 8 249 0.0 0.0 0.00 0.00 0.00 93 1017.7
20260505123004 8 249 0.0 0.0 0.00 0.00 0.00 92 1017.9
20260505122504 8 249 0.0 0.0 0.00 0.00 0.00 93 1017.9
20260505121504 7 249 0.0 0.0 0.00 0.00 0.00 92 1017.6
20260505120504 7 249 0.0 0.0 0.00 0.00 0.00 92 1017.7
20260505120005 7 249 0.0 0.0 0.00 0.00 0.00 92 1017.2
20260505115504 7 249 0.0 0.0 0.00 0.00 0.00 92 1017.2
20260505115004 7 249 0.0 0.0 0.00 0.00 0.00 91 1017.1
20260505114504 7 249 0.0 0.0 0.00 0.00 0.00 91 1017.1
20260505114004 7 249 0.0 0.0 0.00 0.00 0.00 91 1017.0
20260505113505 7 249 0.0 0.0 0.00 0.00 0.00 91 1016.9
20260505112004 7 249 0.0 0.0 0.00 0.00 0.00 90 1016.6
20260505111504 7 249 0.0 0.0 0.00 0.00 0.00 90 1016.7
20260505110505 7 249 0.0 0.0 0.00 0.00 0.00 90 1016.8
20260505101505 7 249 0.0 0.0 0.00 0.00 0.00 89 1016.3
20260505101004 7 249 0.0 0.0 0.00 0.00 0.00 89 1016.4
20260505100505 7 249 0.0 0.0 0.00 0.00 0.00 89 1016.4
20260505100004 7 249 0.0 0.0 0.00 0.00 0.00 89 1016.3
20260505095504 7 249 0.0 0.0 0.00 0.00 0.00 89 1016.2
20260505094504 7 249 0.0 0.0 0.00 0.00 0.00 89 1016.3
20260505094005 7 249 0.0 0.0 0.00 0.00 0.00 89 1016.3
20260505093504 7 249 0.0 0.0 0.00 0.00 0.00 89 1016.3
20260505093005 7 249 0.0 0.0 0.00 0.00 0.00 89 1016.3
20260505092504 7 249 0.0 0.0 0.00 0.00 0.00 89 1016.3
20260505092004 7 249 0.0 0.0 0.00 0.00 0.00 89 1016.3
20260505091504 7 249 0.0 0.0 0.00 0.00 0.00 89 1016.2
20260505090505 7 249 0.0 0.0 0.00 0.00 0.00 88 1016.4
20260505090004 7 249 0.0 0.0 0.00 0.00 0.00 88 1016.3
20260505085505 7 249 0.0 0.0 0.00 0.00 0.00 88 1016.3
20260505085004 7 249 0.0 0.0 0.00 0.00 0.00 88 1016.3
20260505084504 7 249 0.0 0.0 0.00 0.00 0.00 88 1016.4
20260505084004 8 249 0.0 0.0 0.00 0.00 0.00 88 1016.5
20260505083504 8 249 0.0 0.0 0.00 0.00 0.00 88 1016.4
20260505083005 8 249 0.0 0.0 0.00 0.00 0.00 88 1016.4
20260505082504 8 249 0.0 0.0 0.00 0.00 0.00 88 1016.5
20260505082004 8 249 0.0 0.0 0.00 0.00 0.00 88 1016.4
20260505081504 8 249 0.0 0.0 0.00 0.00 0.00 88 1016.3
20260505081004 8 249 0.0 0.0 0.00 0.00 0.00 88 1016.3
20260505080505 8 249 0.0 0.0 0.00 0.00 0.00 88 1016.4
20260505080004 8 249 0.0 0.0 0.00 0.00 0.00 87 1016.4
20260505075504 8 249 0.0 0.0 0.00 0.00 0.00 88 1016.3
20260505074504 8 249 0.0 0.0 0.00 0.00 0.00 88 1016.3
20260505074004 8 249 0.0 0.0 0.00 0.00 0.00 87 1016.3
20260505073504 8 249 0.0 0.0 0.00 0.00 0.00 87 1016.3
20260505073004 8 249 0.0 0.0 0.00 0.00 0.00 87 1016.3
20260505072504 8 249 0.0 0.0 0.00 0.00 0.00 87 1016.3
20260505072004 8 249 0.0 0.0 0.00 0.00 0.00 87 1016.3
20260505071003 8 249 0.0 0.0 0.00 0.00 0.00 87 1016.3
20260505070504 8 249 0.0 0.0 0.00 0.00 0.00 87 1016.3
20260505070004 8 249 0.0 0.0 0.00 0.00 0.00 86 1016.0
20260505065503 8 249 0.0 0.0 0.00 0.00 0.00 86 1016.0
20260505065004 8 249 0.0 0.0 0.00 0.00 0.00 86 1016.1
20260505063504 9 249 0.0 0.0 0.00 0.00 0.00 86 1016.0
20260505063005 9 249 0.0 0.0 0.00 0.00 0.00 86 1016.1
20260505062504 9 249 0.0 0.0 0.00 0.00 0.00 85 1016.1
20260505062004 9 249 0.0 0.0 0.00 0.00 0.00 85 1016.2
20260505061504 9 249 0.0 0.0 0.00 0.00 0.00 85 1016.3
20260505061003 9 249 0.0 0.0 0.00 0.00 0.00 85 1016.3
20260505060504 9 249 0.0 0.0 0.00 0.00 0.00 85 1016.3
20260505060004 9 249 0.0 0.0 0.00 0.00 0.00 85 1016.4
20260505055504 10 249 0.0 0.0 0.00 0.00 0.00 85 1016.4
20260505055004 10 249 0.0 0.0 0.00 0.00 0.00 84 1016.5
20260505054504 10 249 0.0 0.0 0.00 0.00 0.00 84 1016.6
20260505054004 10 249 0.0 0.0 0.00 0.00 0.00 84 1016.6
20260505053504 10 249 0.0 0.0 0.00 0.00 0.00 84 1016.5
20260505053005 10 249 0.0 0.0 0.00 0.00 0.00 84 1016.6
20260505052504 10 249 0.0 0.0 0.00 0.00 0.00 84 1016.6
20260505052004 10 249 0.0 0.0 0.00 0.00 0.00 84 1016.6
20260505051503 10 249 0.0 0.0 0.00 0.00 0.00 84 1016.7
20260505051005 10 249 0.0 0.0 0.00 0.00 0.00 84 1016.6
20260505050504 10 249 0.0 0.0 0.00 0.00 0.00 84 1016.4
20260505041504 11 249 0.0 0.0 0.00 0.00 0.00 83 1016.4
20260505041004 11 249 0.0 0.0 0.00 0.00 0.00 82 1016.5
20260505040005 11 249 0.0 0.0 0.00 0.00 0.00 82 1016.7
20260505035504 11 249 0.0 0.0 0.00 0.00 0.00 82 1016.7
20260505035004 11 249 0.0 0.0 0.00 0.00 0.00 82 1016.7
20260505034003 11 249 0.0 0.0 0.00 0.00 0.00 81 1016.6
20260505033504 11 249 0.0 0.0 0.00 0.00 0.00 81 1016.8
20260505033004 11 249 0.0 0.0 0.00 0.00 0.00 80 1016.8
20260505032503 11 249 0.0 0.0 0.00 0.00 0.00 80 1016.8
20260505032004 11 249 0.0 0.0 0.00 0.00 0.00 80 1016.8
20260505031004 12 249 0.0 0.0 0.00 0.00 0.00 79 1016.7
20260505030503 12 249 0.0 0.0 0.00 0.00 0.00 79 1016.7
20260505030003 12 249 0.0 0.0 0.00 0.00 0.00 79 1016.9
20260505025504 12 249 0.0 0.0 0.00 0.00 0.00 78 1016.9
20260505025004 12 249 0.0 0.0 0.00 0.00 0.00 78 1016.8